DECAYED

STARLINK-2290, 47994 (Decayed)

Orbit data source: Space-Track

STARLINK-2290, 47994 was a payload satellite owned by SpaceX/Seattle (US) in LEO that was launched on Wed, 24 Mar 2021 UTC via an FALCON 9 launch vehicle from the Air Force Eastern Test Range (AFETR). Payload-class satellites include a variety of spacecraft equipped with specific instruments for various scientific and technological missions. These include communications satellites like Starlink; space stations such as the ISS; scientific satellites like the Hubble; Earth observation satellites from companies like Planet Labs, Umbra, and HawkEye 360; GPS; miniature CubeSats for education and research; and military/defense satellites.

Not visible in the next 10 days
Identifier
47994, 2021-024T
Orbit
Decayed
Country
Flag of USUS
Related business
Manufacturer
SpaceX/Seattle
Mission
Decayed Commercial Communications
Bus & Motor
STARLINK, Unknown motor
Mass
260 kg wet, ~248 kg dry
Launch date (UTC)
2021-03-24 (5 years ago)
Launch vehicle
FALCON 9
Launch site
Air Force Eastern Test Range (AFETR)
Object type
Payload
Rocket body
Debris
Shape & HBR
Box + 1 Pan, 10.1 m
Radar Cross Section
13.562 m², Large (>1 m²)

Expand to show TLE details & history
Last TLE update: 1 year ago

TLE from 1 year ago
0 STARLINK-2290
1 47994U 21024T   25032.10343153  .12680967  12333-4  92292-3 0  9996
2 47994  53.0328 280.8887 0005191 250.8271 223.5239 16.39982846214322
Epoch: 2025-02-01T02:28Z
TLE epoch observation values (Epoch: 2025-02-01T02:28:56.484Z)
Latitude
46.88129°
Longitude
-120.95298°
Altitude
173.369 km
Speed
7.807 km/s
True Right ascension
03h 11m 21s
True Declination
46° 41' 40"
Sunlit
Object was in full shadow at epoch
Visualization orbit readout
Latitude
Unknown
Longitude
Unknown
Altitude
Unknown
Speed
Unknown
Apparent Right ascension
Unknown
Apparent Declination
Unknown
Sunlit
N/A
Visualization observer readout
Local Sidereal Time
21:24:48
Azimuth
Unknown
Elevation
Unknown
Doppler factor
Unknown
Orbital elements
Apogee altitude
169.535 km
Perigee altitude
162.741 km
Semi-major axis
6,544.275 km
Eccentricity
0.00052
Inclination
53.0328°
RAAN
280.8887°
Arg. of periapsis
250.8271°
True anomaly
223.48295°
Mean anomaly
223.5239°
Eccentric anomaly
223.50343°
Mean motion
4.09969 °/min
Orbital period
87.81 mins
BSTAR
0.00092292
Loading maneuver chart data...
Computing Atmospheric mass density...

Documentation

Showing up to 5 results
|